Regional Weather Roundup
Issued by NWS

Home | Current Version | Previous Version | Graphics & Text | Print | Product List | Glossary On
Versions: 1 2 3 4 5 6 7 8 9 10 11 12 13 14 15 16 17 18 19 20 21 22 23 24 25 26 27 28 29 30 31 32 33 34 35 36 37 38 39 40 41 42 43 44 45 46 47 48 49 50
000
ASUS43 KLMK 270110
RWRKY
KENTUCKY REGIONAL WEATHER ROUNDUP
NATIONAL WEATHER SERVICE LOUISVILLE KY
900 PM EDT TUE MAY 26 2015

NOTE "FAIR" INDICATES FEW OR NO CLOUDS BELOW 12,000 FEET
WITH NO SIGNIFICANT WEATHER AND/OR OBSTRUCTIONS TO VISIBILITY.

KYZ001>023-026-027-061>063-070>075-270200-
WESTERN AND SOUTH CENTRAL KENTUCKY

CITY           SKY/WX    TMP DP  RH WIND       PRES   REMARKS
PADUCAH        CLEAR     73  61  65 SW8       30.01R
HENDERSON      PTCLDY    72  61  68 SW12      29.98S
OWENSBORO      MOCLDY    74  66  75 SW7       30.01R
HOPKINSVILLE   PTCLDY    74  65  74 S5        30.03R
BOWLING GREEN  MOCLDY    74  68  81 S9        30.04R
GLASGOW        CLOUDY    70  69  98 S5        30.06R
$$

KYZ024-025-028>034-038-045-046-053-270200-
NORTH CENTRAL KENTUCKY

CITY           SKY/WX    TMP DP  RH WIND       PRES   REMARKS
LOUISVILLE/SDF CLOUDY    71  66  84 S9        30.01R
LOUISVILLE/LOU MOCLDY    70  66  87 S5        30.02R
FORT KNOX      MOCLDY    69  66  90 S9        30.02R
$$

KYZ035>037-039>044-047>052-055>060-089>105-270200-
NORTHEAST KENTUCKY

CITY           SKY/WX    TMP DP  RH WIND       PRES   REMARKS
LEXINGTON      CLOUDY    67  65  93 S8        30.07F
COVINGTON      LGT RAIN  71  68  90 S15       30.03R
FRANKFORT      CLOUDY    67  64  90 S7        30.04S
$$

KYZ054-064>069-076>088-106>120-270200-
SOUTHEAST KENTUCKY

CITY           SKY/WX    TMP DP  RH WIND       PRES   REMARKS
JACKSON        CLOUDY    76  61  59 VRB3      30.10R
LONDON         LGT RAIN  69  63  81 SW8       30.13S
SOMERSET       CLOUDY    66  66 100 CALM      30.12S
MIDDLESBORO    CLOUDY    74  66  75 SW8G16    30.15R
MONTICELLO     CLOUDY    69  68  97 S7        30.13R
$$




USA.gov is the U.S. government's official web portal to all federal, state and local government web resources and services.